Year,Month,Day,Hour,Minute,Value (Times are PST for temperature in C)
2014,04,29,00,00,9.30
2014,04,29,00,01,9.20
2014,04,29,00,02,9.20
2014,04,29,00,03,9.20
2014,04,29,00,04,9.20
2014,04,29,00,05,9.20
2014,04,29,00,06,9.20
2014,04,29,00,07,9.20
2014,04,29,00,08,9.20
2014,04,29,00,09,9.20
2014,04,29,00,10,9.20
2014,04,29,00,11,9.20
2014,04,29,00,12,9.20
2014,04,29,00,13,9.20
2014,04,29,00,14,9.20
2014,04,29,00,15,9.20
2014,04,29,00,16,9.20
2014,04,29,00,17,9.20
2014,04,29,00,18,9.30
2014,04,29,00,19,9.30
2014,04,29,00,20,9.30
2014,04,29,00,21,9.30
2014,04,29,00,22,9.30
2014,04,29,00,23,9.30
2014,04,29,00,24,9.30
2014,04,29,00,25,9.30
2014,04,29,00,26,9.30
2014,04,29,00,27,9.30
2014,04,29,00,28,9.20
2014,04,29,00,29,9.20
2014,04,29,00,30,9.20
2014,04,29,00,31,9.20
2014,04,29,00,32,9.20
2014,04,29,00,33,9.20
2014,04,29,00,34,9.20
2014,04,29,00,35,9.10
2014,04,29,00,36,9.10
2014,04,29,00,37,9.10
2014,04,29,00,38,9.00
2014,04,29,00,39,9.00
2014,04,29,00,40,9.00
2014,04,29,00,41,9.00
2014,04,29,00,42,9.00
2014,04,29,00,43,8.90
2014,04,29,00,44,8.90
2014,04,29,00,45,8.90
2014,04,29,00,46,8.90
2014,04,29,00,47,8.90
2014,04,29,00,48,8.90
2014,04,29,00,49,8.90
2014,04,29,00,50,8.90
2014,04,29,00,51,9.00
2014,04,29,00,52,9.00
2014,04,29,00,53,9.00
2014,04,29,00,54,9.00
2014,04,29,00,55,9.00
2014,04,29,00,56,9.00
2014,04,29,00,57,9.00
2014,04,29,00,58,9.00
2014,04,29,00,59,8.90
2014,04,29,01,00,8.90
2014,04,29,01,01,8.90
2014,04,29,01,02,8.90
2014,04,29,01,03,8.90
2014,04,29,01,04,8.90
2014,04,29,01,05,8.90
2014,04,29,01,06,8.90
2014,04,29,01,07,8.90
2014,04,29,01,08,8.90
2014,04,29,01,09,8.90
2014,04,29,01,10,8.90
2014,04,29,01,11,8.90
2014,04,29,01,12,8.90
2014,04,29,01,13,8.90
2014,04,29,01,14,8.90
2014,04,29,01,15,8.90
2014,04,29,01,16,8.90
2014,04,29,01,17,8.80
2014,04,29,01,18,8.80
2014,04,29,01,19,8.80
2014,04,29,01,20,8.80
2014,04,29,01,21,8.80
2014,04,29,01,22,8.80
2014,04,29,01,23,8.80
2014,04,29,01,24,8.80
2014,04,29,01,25,8.80
2014,04,29,01,26,8.70
2014,04,29,01,27,8.70
2014,04,29,01,28,8.70
2014,04,29,01,29,8.70
2014,04,29,01,30,8.70
2014,04,29,01,31,8.60
2014,04,29,01,32,8.60
2014,04,29,01,33,8.60
2014,04,29,01,34,8.60
2014,04,29,01,35,8.60
2014,04,29,01,36,8.60
2014,04,29,01,37,8.60
2014,04,29,01,38,8.60
2014,04,29,01,39,8.60
2014,04,29,01,40,8.60
2014,04,29,01,41,8.60
2014,04,29,01,42,8.60
2014,04,29,01,43,8.60
2014,04,29,01,44,8.60
2014,04,29,01,45,8.50
2014,04,29,01,46,8.50
2014,04,29,01,47,8.50
2014,04,29,01,48,8.50
2014,04,29,01,49,8.50
2014,04,29,01,50,8.40
2014,04,29,01,51,8.40
2014,04,29,01,52,8.40
2014,04,29,01,53,8.40
2014,04,29,01,54,8.40
2014,04,29,01,55,8.40
2014,04,29,01,56,8.40
2014,04,29,01,57,8.40
2014,04,29,01,58,8.40
2014,04,29,01,59,8.40
2014,04,29,02,00,8.40
2014,04,29,02,01,8.40
2014,04,29,02,02,8.40
2014,04,29,02,03,8.40
2014,04,29,02,04,8.30
2014,04,29,02,05,8.30
2014,04,29,02,06,8.30
2014,04,29,02,07,8.30
2014,04,29,02,08,8.30
2014,04,29,02,09,8.30
2014,04,29,02,10,8.30
2014,04,29,02,11,8.30
2014,04,29,02,12,8.30
2014,04,29,02,13,8.30
2014,04,29,02,14,8.30
2014,04,29,02,15,8.20
2014,04,29,02,16,8.20
2014,04,29,02,17,8.20
2014,04,29,02,18,8.20
2014,04,29,02,19,8.20
2014,04,29,02,20,8.20
2014,04,29,02,21,8.20
2014,04,29,02,22,8.20
2014,04,29,02,23,8.20
2014,04,29,02,24,8.10
2014,04,29,02,25,8.10
2014,04,29,02,26,8.10
2014,04,29,02,27,8.10
2014,04,29,02,28,8.10
2014,04,29,02,29,8.10
2014,04,29,02,30,8.10
2014,04,29,02,31,8.10
2014,04,29,02,32,8.10
2014,04,29,02,33,8.10
2014,04,29,02,34,8.10
2014,04,29,02,35,8.10
2014,04,29,02,36,8.00
2014,04,29,02,37,8.00
2014,04,29,02,38,8.00
2014,04,29,02,39,7.90
2014,04,29,02,40,7.90
2014,04,29,02,41,7.90
2014,04,29,02,42,7.90
2014,04,29,02,43,7.90
2014,04,29,02,44,7.90
2014,04,29,02,45,7.90
2014,04,29,02,46,7.90
2014,04,29,02,47,7.90
2014,04,29,02,48,7.80
2014,04,29,02,49,7.80
2014,04,29,02,50,7.80
2014,04,29,02,51,7.80
2014,04,29,02,52,7.80
2014,04,29,02,53,7.80
2014,04,29,02,54,7.80
2014,04,29,02,55,7.80
2014,04,29,02,56,7.80
2014,04,29,02,57,7.80
2014,04,29,02,58,7.80
2014,04,29,02,59,7.80
2014,04,29,03,00,7.80
2014,04,29,03,01,7.80
2014,04,29,03,02,7.80
2014,04,29,03,03,7.80
2014,04,29,03,04,7.80
2014,04,29,03,05,7.80
2014,04,29,03,06,7.80
2014,04,29,03,07,7.80
2014,04,29,03,08,7.80
2014,04,29,03,09,7.80
2014,04,29,03,10,7.80
2014,04,29,03,11,7.80
2014,04,29,03,12,7.80
2014,04,29,03,13,7.80
2014,04,29,03,14,7.80
2014,04,29,03,15,7.80
2014,04,29,03,16,7.80
2014,04,29,03,17,7.80
2014,04,29,03,18,7.80
2014,04,29,03,19,7.80
2014,04,29,03,20,7.80
2014,04,29,03,21,7.80
2014,04,29,03,22,7.80
2014,04,29,03,23,7.80
2014,04,29,03,24,7.80
2014,04,29,03,25,7.90
2014,04,29,03,26,7.90
2014,04,29,03,27,7.90
2014,04,29,03,28,7.90
2014,04,29,03,29,7.90
2014,04,29,03,30,8.00
2014,04,29,03,31,8.00
2014,04,29,03,32,8.00
2014,04,29,03,33,8.00
2014,04,29,03,34,8.00
2014,04,29,03,35,8.00
2014,04,29,03,36,8.10
2014,04,29,03,37,8.10
2014,04,29,03,38,8.10
2014,04,29,03,39,8.10
2014,04,29,03,40,8.10
2014,04,29,03,41,8.10
2014,04,29,03,42,8.10
2014,04,29,03,43,8.10
2014,04,29,03,44,8.10
2014,04,29,03,45,8.10
2014,04,29,03,46,8.10
2014,04,29,03,47,8.10
2014,04,29,03,48,8.10
2014,04,29,03,49,8.10
2014,04,29,03,50,8.10
2014,04,29,03,51,8.10
2014,04,29,03,52,8.10
2014,04,29,03,53,8.10
2014,04,29,03,54,8.10
2014,04,29,03,55,8.10
2014,04,29,03,56,8.10
2014,04,29,03,57,8.10
2014,04,29,03,58,8.10
2014,04,29,03,59,8.10
2014,04,29,04,00,8.10
2014,04,29,04,01,8.10
2014,04,29,04,02,8.20
2014,04,29,04,03,8.20
2014,04,29,04,04,8.20
2014,04,29,04,05,8.20
2014,04,29,04,06,8.20
2014,04,29,04,07,8.20
2014,04,29,04,08,8.20
2014,04,29,04,09,8.20
2014,04,29,04,10,8.20
2014,04,29,04,11,8.20
2014,04,29,04,12,8.20
2014,04,29,04,13,8.20
2014,04,29,04,14,8.20
2014,04,29,04,15,8.20
2014,04,29,04,16,8.20
2014,04,29,04,17,8.20
2014,04,29,04,18,8.20
2014,04,29,04,19,8.20
2014,04,29,04,20,8.20
2014,04,29,04,21,8.20
2014,04,29,04,22,8.20
2014,04,29,04,23,8.20
2014,04,29,04,24,8.20
2014,04,29,04,25,8.20
2014,04,29,04,26,8.20
2014,04,29,04,27,8.20
2014,04,29,04,28,8.20
2014,04,29,04,29,8.20
2014,04,29,04,30,8.20
2014,04,29,04,31,8.20
2014,04,29,04,32,8.20
2014,04,29,04,33,8.20
2014,04,29,04,34,8.20
2014,04,29,04,35,8.20
2014,04,29,04,36,8.20
2014,04,29,04,37,8.20
2014,04,29,04,38,8.20
2014,04,29,04,39,8.20
2014,04,29,04,40,8.20
2014,04,29,04,41,8.20
2014,04,29,04,42,8.20
2014,04,29,04,43,8.20
2014,04,29,04,44,8.20
2014,04,29,04,45,8.20
2014,04,29,04,46,8.20
2014,04,29,04,47,8.20
2014,04,29,04,48,8.20
2014,04,29,04,49,8.20
2014,04,29,04,50,8.20
2014,04,29,04,51,8.20
2014,04,29,04,52,8.20
2014,04,29,04,53,8.20
2014,04,29,04,54,8.20
2014,04,29,04,55,8.20
2014,04,29,04,56,8.20
2014,04,29,04,57,8.20
2014,04,29,04,58,8.20
2014,04,29,04,59,8.10
2014,04,29,05,00,8.10
2014,04,29,05,01,8.10
2014,04,29,05,02,8.10
2014,04,29,05,03,8.10
2014,04,29,05,04,8.10
2014,04,29,05,05,8.10
2014,04,29,05,06,8.10
2014,04,29,05,07,8.10
2014,04,29,05,08,8.10
2014,04,29,05,09,8.10
2014,04,29,05,10,8.10
2014,04,29,05,11,8.10
2014,04,29,05,12,8.10
2014,04,29,05,13,8.10
2014,04,29,05,14,8.10
2014,04,29,05,15,8.10
2014,04,29,05,16,8.10
2014,04,29,05,17,8.10
2014,04,29,05,18,8.10
2014,04,29,05,19,8.10
2014,04,29,05,20,8.10
2014,04,29,05,21,8.10
2014,04,29,05,22,8.10
2014,04,29,05,23,8.10
2014,04,29,05,24,8.10
2014,04,29,05,25,8.10
2014,04,29,05,26,8.10
2014,04,29,05,27,8.10
2014,04,29,05,28,8.10
2014,04,29,05,29,8.10
2014,04,29,05,30,8.10
2014,04,29,05,31,8.10
2014,04,29,05,32,8.10
2014,04,29,05,33,8.10
2014,04,29,05,34,8.10
2014,04,29,05,35,8.10
2014,04,29,05,36,8.10
2014,04,29,05,37,8.10
2014,04,29,05,38,8.10
2014,04,29,05,39,8.10
2014,04,29,05,40,8.10
2014,04,29,05,41,8.10
2014,04,29,05,42,8.10
2014,04,29,05,43,8.10
2014,04,29,05,44,8.10
2014,04,29,05,45,8.10
2014,04,29,05,46,8.10
2014,04,29,05,47,8.10
2014,04,29,05,48,8.10
2014,04,29,05,49,8.10
2014,04,29,05,50,8.10
2014,04,29,05,51,8.10
2014,04,29,05,52,8.10
2014,04,29,05,53,8.10
2014,04,29,05,54,8.10
2014,04,29,05,55,8.10
2014,04,29,05,56,8.10
2014,04,29,05,57,8.10
2014,04,29,05,58,8.10
2014,04,29,05,59,8.10
2014,04,29,06,00,8.10
2014,04,29,06,01,8.10
2014,04,29,06,02,8.10
2014,04,29,06,03,8.10
2014,04,29,06,04,8.10
2014,04,29,06,05,8.10
2014,04,29,06,06,8.10
2014,04,29,06,07,8.10
2014,04,29,06,08,8.10
2014,04,29,06,09,8.10
2014,04,29,06,10,8.10
2014,04,29,06,11,8.10
2014,04,29,06,12,8.10
2014,04,29,06,13,8.10
2014,04,29,06,14,8.10
2014,04,29,06,15,8.10
2014,04,29,06,16,8.10
2014,04,29,06,17,8.10
2014,04,29,06,18,8.10
2014,04,29,06,19,8.10
2014,04,29,06,20,8.10
2014,04,29,06,21,8.10
2014,04,29,06,22,8.10
2014,04,29,06,23,8.10
2014,04,29,06,24,8.10
2014,04,29,06,25,8.10
2014,04,29,06,26,8.10
2014,04,29,06,27,8.10
2014,04,29,06,28,8.10
2014,04,29,06,29,8.10
2014,04,29,06,30,8.10
2014,04,29,06,31,8.10
2014,04,29,06,32,8.10
2014,04,29,06,33,8.10
2014,04,29,06,34,8.10
2014,04,29,06,35,8.10
2014,04,29,06,36,8.10
2014,04,29,06,37,8.10
2014,04,29,06,38,8.10
2014,04,29,06,39,8.10
2014,04,29,06,40,8.10
2014,04,29,06,41,8.10
2014,04,29,06,42,8.10
2014,04,29,06,43,8.10
2014,04,29,06,44,8.10
2014,04,29,06,45,8.10
2014,04,29,06,46,8.10
2014,04,29,06,47,8.10
2014,04,29,06,48,8.10
2014,04,29,06,49,8.20
2014,04,29,06,50,8.20
2014,04,29,06,51,8.20
2014,04,29,06,52,8.20
2014,04,29,06,53,8.20
2014,04,29,06,54,8.20
2014,04,29,06,55,8.20
2014,04,29,06,56,8.20
2014,04,29,06,57,8.20
2014,04,29,06,58,8.20
2014,04,29,06,59,8.20
2014,04,29,07,00,8.20
2014,04,29,07,01,8.20
2014,04,29,07,02,8.20
2014,04,29,07,03,8.20
2014,04,29,07,04,8.30
2014,04,29,07,05,8.30
2014,04,29,07,06,8.30
2014,04,29,07,07,8.30
2014,04,29,07,08,8.30
2014,04,29,07,09,8.30
2014,04,29,07,10,8.30
2014,04,29,07,11,8.30
2014,04,29,07,12,8.30
2014,04,29,07,13,8.30
2014,04,29,07,14,8.30
2014,04,29,07,15,8.30
2014,04,29,07,16,8.30
2014,04,29,07,17,8.30
2014,04,29,07,18,8.30
2014,04,29,07,19,8.30
2014,04,29,07,20,8.40
2014,04,29,07,21,8.40
2014,04,29,07,22,8.40
2014,04,29,07,23,8.40
2014,04,29,07,24,8.40
2014,04,29,07,25,8.40
2014,04,29,07,26,8.40
2014,04,29,07,27,8.50
2014,04,29,07,28,8.50
2014,04,29,07,29,8.50
2014,04,29,07,30,8.50
2014,04,29,07,31,8.50
2014,04,29,07,32,8.50
2014,04,29,07,33,8.60
2014,04,29,07,34,8.60
2014,04,29,07,35,8.60
2014,04,29,07,36,8.60
2014,04,29,07,37,8.60
2014,04,29,07,38,8.60
2014,04,29,07,39,8.70
2014,04,29,07,40,8.70
2014,04,29,07,41,8.70
2014,04,29,07,42,8.70
2014,04,29,07,43,8.70
2014,04,29,07,44,8.70
2014,04,29,07,45,8.80
2014,04,29,07,46,8.80
2014,04,29,07,47,8.80
2014,04,29,07,48,8.80
2014,04,29,07,49,8.80
2014,04,29,07,50,8.90
2014,04,29,07,51,8.90
2014,04,29,07,52,8.90
2014,04,29,07,53,8.90
2014,04,29,07,54,8.90
2014,04,29,07,55,9.00
2014,04,29,07,56,9.00
2014,04,29,07,57,9.10
2014,04,29,07,58,9.10
2014,04,29,07,59,9.10
2014,04,29,08,00,9.10
2014,04,29,08,01,9.10
2014,04,29,08,02,9.10
2014,04,29,08,03,9.20
2014,04,29,08,04,9.20
2014,04,29,08,05,9.20
2014,04,29,08,06,9.20
2014,04,29,08,07,9.20
2014,04,29,08,08,9.20
2014,04,29,08,09,9.30
2014,04,29,08,10,9.30
2014,04,29,08,11,9.30
2014,04,29,08,12,9.30
2014,04,29,08,13,9.30
2014,04,29,08,14,9.30
2014,04,29,08,15,9.30
2014,04,29,08,16,9.40
2014,04,29,08,17,9.40
2014,04,29,08,18,9.40
2014,04,29,08,19,9.40
2014,04,29,08,20,9.40
2014,04,29,08,21,9.40
2014,04,29,08,22,9.40
2014,04,29,08,23,9.40
2014,04,29,08,24,9.40
2014,04,29,08,25,9.40
2014,04,29,08,26,9.40
2014,04,29,08,27,9.50
2014,04,29,08,28,9.50
2014,04,29,08,29,9.50
2014,04,29,08,30,9.50
2014,04,29,08,31,9.50
2014,04,29,08,32,9.60
2014,04,29,08,33,9.60
2014,04,29,08,34,9.60
2014,04,29,08,35,9.60
2014,04,29,08,36,9.60
2014,04,29,08,37,9.70
2014,04,29,08,38,9.70
2014,04,29,08,39,9.70
2014,04,29,08,40,9.70
2014,04,29,08,41,9.80
2014,04,29,08,42,9.80
2014,04,29,08,43,9.80
2014,04,29,08,44,9.80
2014,04,29,08,45,9.80
2014,04,29,08,46,9.90
2014,04,29,08,47,9.90
2014,04,29,08,48,9.90
2014,04,29,08,49,9.90
2014,04,29,08,50,9.90
2014,04,29,08,51,10.00
2014,04,29,08,52,10.00
2014,04,29,08,53,10.10
2014,04,29,08,54,10.10
2014,04,29,08,55,10.10
2014,04,29,08,56,10.10
2014,04,29,08,57,10.10
2014,04,29,08,58,10.20
2014,04,29,08,59,10.20
2014,04,29,09,00,10.20
2014,04,29,09,01,10.20
2014,04,29,09,02,10.20
2014,04,29,09,03,10.20
2014,04,29,09,04,10.20
2014,04,29,09,05,10.20
2014,04,29,09,06,10.30
2014,04,29,09,07,10.30
2014,04,29,09,08,10.30
2014,04,29,09,09,10.40
2014,04,29,09,10,10.40
2014,04,29,09,11,10.40
2014,04,29,09,12,10.50
2014,04,29,09,13,10.50
2014,04,29,09,14,10.60
2014,04,29,09,15,10.60
2014,04,29,09,16,10.70
2014,04,29,09,17,10.70
2014,04,29,09,18,10.80
2014,04,29,09,19,10.80
2014,04,29,09,20,10.90
2014,04,29,09,21,10.90
2014,04,29,09,22,11.00
2014,04,29,09,23,11.10
2014,04,29,09,24,11.20
2014,04,29,09,25,11.20
2014,04,29,09,26,11.30
2014,04,29,09,27,11.40
2014,04,29,09,28,11.40
2014,04,29,09,29,11.50
2014,04,29,09,30,11.60
2014,04,29,09,31,11.70
2014,04,29,09,32,11.80
2014,04,29,09,33,11.90
2014,04,29,09,34,11.90
2014,04,29,09,35,12.10
2014,04,29,09,36,12.10
2014,04,29,09,37,12.20
2014,04,29,09,38,12.30
2014,04,29,09,39,12.30
2014,04,29,09,40,12.40
2014,04,29,09,41,12.50
2014,04,29,09,42,12.50
2014,04,29,09,43,12.60
2014,04,29,09,44,12.70
2014,04,29,09,45,12.70
2014,04,29,09,46,12.80
2014,04,29,09,47,12.80
2014,04,29,09,48,12.80
2014,04,29,09,49,12.90
2014,04,29,09,50,12.90
2014,04,29,09,51,13.00
2014,04,29,09,52,13.00
2014,04,29,09,53,13.10
2014,04,29,09,54,13.20
2014,04,29,09,55,13.20
2014,04,29,09,56,13.30
2014,04,29,09,57,13.30
2014,04,29,09,58,13.30
2014,04,29,09,59,13.40
2014,04,29,10,00,13.40
2014,04,29,10,01,13.50
2014,04,29,10,02,13.60
2014,04,29,10,03,13.60
2014,04,29,10,04,13.70
2014,04,29,10,05,13.70
2014,04,29,10,06,13.80
2014,04,29,10,07,13.80
2014,04,29,10,08,13.90
2014,04,29,10,09,14.00
2014,04,29,10,10,14.00
2014,04,29,10,11,14.10
2014,04,29,10,12,14.10
2014,04,29,10,13,14.10
2014,04,29,10,14,14.10
2014,04,29,10,15,14.10
2014,04,29,10,16,14.10
2014,04,29,10,17,14.00
2014,04,29,10,18,14.00
2014,04,29,10,19,14.00
2014,04,29,10,20,14.00
2014,04,29,10,21,14.00
2014,04,29,10,22,14.00
2014,04,29,10,23,13.90
2014,04,29,10,24,13.90
2014,04,29,10,25,13.90
2014,04,29,10,26,13.80
2014,04,29,10,27,13.80
2014,04,29,10,28,13.80
2014,04,29,10,29,13.80
2014,04,29,10,30,13.70
2014,04,29,10,31,13.70
2014,04,29,10,32,13.70
2014,04,29,10,33,13.70
2014,04,29,10,34,13.70
2014,04,29,10,35,13.60
2014,04,29,10,36,13.70
2014,04,29,10,37,13.70
2014,04,29,10,38,13.70
2014,04,29,10,39,13.70
2014,04,29,10,40,13.80
2014,04,29,10,41,13.80
2014,04,29,10,42,13.80
2014,04,29,10,43,13.80
2014,04,29,10,44,13.80
2014,04,29,10,45,13.80
2014,04,29,10,46,13.80
2014,04,29,10,47,13.80
2014,04,29,10,48,13.90
2014,04,29,10,49,13.90
2014,04,29,10,50,13.90
2014,04,29,10,51,13.90
2014,04,29,10,52,14.00
2014,04,29,10,53,14.00
2014,04,29,10,54,14.10
2014,04,29,10,55,14.10
2014,04,29,10,56,14.10
2014,04,29,10,57,14.10
2014,04,29,10,58,14.20
2014,04,29,10,59,14.20
2014,04,29,11,00,14.20
2014,04,29,11,01,14.30
2014,04,29,11,02,14.30
2014,04,29,11,03,14.30
2014,04,29,11,04,14.40
2014,04,29,11,05,14.40
2014,04,29,11,06,14.40
2014,04,29,11,07,14.30
2014,04,29,11,08,14.30
2014,04,29,11,09,14.30
2014,04,29,11,10,14.30
2014,04,29,11,11,14.30
2014,04,29,11,12,14.30
2014,04,29,11,13,14.30
2014,04,29,11,14,14.30
2014,04,29,11,15,14.30
2014,04,29,11,16,14.30
2014,04,29,11,17,14.30
2014,04,29,11,18,14.30
2014,04,29,11,19,14.20
2014,04,29,11,20,14.20
2014,04,29,11,21,14.20
2014,04,29,11,22,14.10
2014,04,29,11,23,14.10
2014,04,29,11,24,14.20
2014,04,29,11,25,14.20
2014,04,29,11,26,14.20
2014,04,29,11,27,14.20
2014,04,29,11,28,14.20
2014,04,29,11,29,14.20
2014,04,29,11,30,14.20
2014,04,29,11,31,14.20
2014,04,29,11,32,14.20
2014,04,29,11,33,14.20
2014,04,29,11,34,14.20
2014,04,29,11,35,14.20
2014,04,29,11,36,14.20
2014,04,29,11,37,14.30
2014,04,29,11,38,14.30
2014,04,29,11,39,14.40
2014,04,29,11,40,14.40
2014,04,29,11,41,14.40
2014,04,29,11,42,14.50
2014,04,29,11,43,14.50
2014,04,29,11,44,14.60
2014,04,29,11,45,14.60
2014,04,29,11,46,14.60
2014,04,29,11,47,14.60
2014,04,29,11,48,14.60
2014,04,29,11,49,14.50
2014,04,29,11,50,14.40
2014,04,29,11,51,14.40
2014,04,29,11,52,14.40
2014,04,29,11,53,14.40
2014,04,29,11,54,14.50
2014,04,29,11,55,14.50
2014,04,29,11,56,14.60
2014,04,29,11,57,14.60
2014,04,29,11,58,14.60
2014,04,29,11,59,14.60
2014,04,29,12,00,14.70
2014,04,29,12,01,14.60
2014,04,29,12,02,14.60
2014,04,29,12,03,14.60
2014,04,29,12,04,14.70
2014,04,29,12,05,14.70
2014,04,29,12,06,14.70
2014,04,29,12,07,14.80
2014,04,29,12,08,14.80
2014,04,29,12,09,14.80
2014,04,29,12,10,14.90
2014,04,29,12,11,14.90
2014,04,29,12,12,14.90
2014,04,29,12,13,14.90
2014,04,29,12,14,14.90
2014,04,29,12,15,14.90
2014,04,29,12,16,14.90
2014,04,29,12,17,14.90
2014,04,29,12,18,14.90
2014,04,29,12,19,14.90
2014,04,29,12,20,15.00
2014,04,29,12,21,15.00
2014,04,29,12,22,15.10
2014,04,29,12,23,15.10
2014,04,29,12,24,15.20
2014,04,29,12,25,15.20
2014,04,29,12,26,15.20
2014,04,29,12,27,15.20
2014,04,29,12,28,15.20
2014,04,29,12,29,15.20
2014,04,29,12,30,15.20
2014,04,29,12,31,15.20
2014,04,29,12,32,15.20
2014,04,29,12,33,15.20
2014,04,29,12,34,15.20
2014,04,29,12,35,15.20
2014,04,29,12,36,15.30
2014,04,29,12,37,15.30
2014,04,29,12,38,15.40
2014,04,29,12,39,15.50
2014,04,29,12,40,15.60
2014,04,29,12,41,15.70
2014,04,29,12,42,15.70
2014,04,29,12,43,15.70
2014,04,29,12,44,15.70
2014,04,29,12,45,15.80
2014,04,29,12,46,15.80
2014,04,29,12,47,15.90
2014,04,29,12,48,15.90
2014,04,29,12,49,15.90
2014,04,29,12,50,15.90
2014,04,29,12,51,15.80
2014,04,29,12,52,15.80
2014,04,29,12,53,15.80
2014,04,29,12,54,15.80
2014,04,29,12,55,15.90
2014,04,29,12,56,15.90
2014,04,29,12,57,16.00
2014,04,29,12,58,16.00
2014,04,29,12,59,16.10
2014,04,29,13,00,16.10
2014,04,29,13,01,16.10
2014,04,29,13,02,16.10
2014,04,29,13,03,16.10
2014,04,29,13,04,16.10
2014,04,29,13,05,16.10
2014,04,29,13,06,16.10
2014,04,29,13,07,16.10
2014,04,29,13,08,16.10
2014,04,29,13,09,16.10
2014,04,29,13,10,16.10
2014,04,29,13,11,16.10
2014,04,29,13,12,16.20
2014,04,29,13,13,16.20
2014,04,29,13,14,16.20
2014,04,29,13,15,16.20
2014,04,29,13,16,16.20
2014,04,29,13,17,16.20
2014,04,29,13,18,16.30
2014,04,29,13,19,16.30
2014,04,29,13,20,16.40
2014,04,29,13,21,16.40
2014,04,29,13,22,16.40
2014,04,29,13,23,16.40
2014,04,29,13,24,16.40
2014,04,29,13,25,16.50
2014,04,29,13,26,16.40
2014,04,29,13,27,16.40
2014,04,29,13,28,16.40
2014,04,29,13,29,16.40
2014,04,29,13,30,16.40
2014,04,29,13,31,16.40
2014,04,29,13,32,16.50
2014,04,29,13,33,16.50
2014,04,29,13,34,16.60
2014,04,29,13,35,16.70
2014,04,29,13,36,16.70
2014,04,29,13,37,16.70
2014,04,29,13,38,16.80
2014,04,29,13,39,16.80
2014,04,29,13,40,16.80
2014,04,29,13,41,16.80
2014,04,29,13,42,16.80
2014,04,29,13,43,16.90
2014,04,29,13,44,16.90
2014,04,29,13,45,16.90
2014,04,29,13,46,16.90
2014,04,29,13,47,17.00
2014,04,29,13,48,17.10
2014,04,29,13,49,17.10
2014,04,29,13,50,17.20
2014,04,29,13,51,17.20
2014,04,29,13,52,17.30
2014,04,29,13,53,17.30
2014,04,29,13,54,17.40
2014,04,29,13,55,17.50
2014,04,29,13,56,17.50
2014,04,29,13,57,17.60
2014,04,29,13,58,17.50
2014,04,29,13,59,17.50
2014,04,29,14,00,17.50
2014,04,29,14,01,17.40
2014,04,29,14,02,17.40
2014,04,29,14,03,17.40
2014,04,29,14,04,17.30
2014,04,29,14,05,17.30
2014,04,29,14,06,17.30
2014,04,29,14,07,17.30
2014,04,29,14,08,17.30
2014,04,29,14,09,17.30
2014,04,29,14,10,17.40
2014,04,29,14,11,17.40
2014,04,29,14,12,17.40
2014,04,29,14,13,17.40
2014,04,29,14,14,17.40
2014,04,29,14,15,17.40
2014,04,29,14,16,17.40
2014,04,29,14,17,17.40
2014,04,29,14,18,17.50
2014,04,29,14,19,17.50
2014,04,29,14,20,17.60
2014,04,29,14,21,17.70
2014,04,29,14,22,17.70
2014,04,29,14,23,17.70
2014,04,29,14,24,17.80
2014,04,29,14,25,17.80
2014,04,29,14,26,17.70
2014,04,29,14,27,17.70
2014,04,29,14,28,17.70
2014,04,29,14,29,17.70
2014,04,29,14,30,17.70
2014,04,29,14,31,17.70
2014,04,29,14,32,17.80
2014,04,29,14,33,17.90
2014,04,29,14,34,18.00
2014,04,29,14,35,18.00
2014,04,29,14,36,18.00
2014,04,29,14,37,17.90
2014,04,29,14,38,18.00
2014,04,29,14,39,18.00
2014,04,29,14,40,18.10
2014,04,29,14,41,18.10
2014,04,29,14,42,18.10
2014,04,29,14,43,18.10
2014,04,29,14,44,18.10
2014,04,29,14,45,18.10
2014,04,29,14,46,18.10
2014,04,29,14,47,18.10
2014,04,29,14,48,18.10
2014,04,29,14,49,18.10
2014,04,29,14,50,18.20
2014,04,29,14,51,18.20
2014,04,29,14,52,18.20
2014,04,29,14,53,18.20
2014,04,29,14,54,18.20
2014,04,29,14,55,18.30
2014,04,29,14,56,18.30
2014,04,29,14,57,18.30
2014,04,29,14,58,18.30
2014,04,29,14,59,18.30
2014,04,29,15,00,18.30
2014,04,29,15,01,18.20
2014,04,29,15,02,18.20
2014,04,29,15,03,18.10
2014,04,29,15,04,18.00
2014,04,29,15,05,18.00
2014,04,29,15,06,18.00
2014,04,29,15,07,18.00
2014,04,29,15,08,18.00
2014,04,29,15,09,18.00
2014,04,29,15,10,18.00
2014,04,29,15,11,18.00
2014,04,29,15,12,18.00
2014,04,29,15,13,18.00
2014,04,29,15,14,18.00
2014,04,29,15,15,18.10
2014,04,29,15,16,18.10
2014,04,29,15,17,18.20
2014,04,29,15,18,18.20
2014,04,29,15,19,18.30
2014,04,29,15,20,18.40
2014,04,29,15,21,18.40
2014,04,29,15,22,18.50
2014,04,29,15,23,18.60
2014,04,29,15,24,18.60
2014,04,29,15,25,18.60
2014,04,29,15,26,18.70
2014,04,29,15,27,18.70
2014,04,29,15,28,18.70
2014,04,29,15,29,18.70
2014,04,29,15,30,18.70
2014,04,29,15,31,18.70
2014,04,29,15,32,18.80
2014,04,29,15,33,18.80
2014,04,29,15,34,18.90
2014,04,29,15,35,18.90
2014,04,29,15,36,19.00
2014,04,29,15,37,19.10
2014,04,29,15,38,19.20
2014,04,29,15,39,19.40
2014,04,29,15,40,19.50
2014,04,29,15,41,19.60
2014,04,29,15,42,19.70
2014,04,29,15,43,19.70
2014,04,29,15,44,19.80
2014,04,29,15,45,19.80
2014,04,29,15,46,19.80
2014,04,29,15,47,19.70
2014,04,29,15,48,19.60
2014,04,29,15,49,19.60
2014,04,29,15,50,19.60
2014,04,29,15,51,19.50
2014,04,29,15,52,19.40
2014,04,29,15,53,19.30
2014,04,29,15,54,19.30
2014,04,29,15,55,19.30
2014,04,29,15,56,19.40
2014,04,29,15,57,19.40
2014,04,29,15,58,19.40
2014,04,29,15,59,19.30
2014,04,29,16,00,19.30
2014,04,29,16,01,19.30
2014,04,29,16,02,19.30
2014,04,29,16,03,19.30
2014,04,29,16,04,19.30
2014,04,29,16,05,19.30
2014,04,29,16,06,19.30
2014,04,29,16,07,19.30
2014,04,29,16,08,19.20
2014,04,29,16,09,19.20
2014,04,29,16,10,19.20
2014,04,29,16,11,19.10
2014,04,29,16,12,19.10
2014,04,29,16,13,19.10
2014,04,29,16,14,19.10
2014,04,29,16,15,19.10
2014,04,29,16,16,19.10
2014,04,29,16,17,19.20
2014,04,29,16,18,19.30
2014,04,29,16,19,19.30
2014,04,29,16,20,19.40
2014,04,29,16,21,19.40
2014,04,29,16,22,19.40
2014,04,29,16,23,19.40
2014,04,29,16,24,19.40
2014,04,29,16,25,19.50
2014,04,29,16,26,19.60
2014,04,29,16,27,19.60
2014,04,29,16,28,19.70
2014,04,29,16,29,19.70
2014,04,29,16,30,19.80
2014,04,29,16,31,19.80
2014,04,29,16,32,19.80
2014,04,29,16,33,19.80
2014,04,29,16,34,19.80
2014,04,29,16,35,19.70
2014,04,29,16,36,19.60
2014,04,29,16,37,19.50
2014,04,29,16,38,19.40
2014,04,29,16,39,19.50
2014,04,29,16,40,19.50
2014,04,29,16,41,19.60
2014,04,29,16,42,19.60
2014,04,29,16,43,19.60
2014,04,29,16,44,19.60
2014,04,29,16,45,19.60
2014,04,29,16,46,19.60
2014,04,29,16,47,19.70
2014,04,29,16,48,19.70
2014,04,29,16,49,19.70
2014,04,29,16,50,19.70
2014,04,29,16,51,19.70
2014,04,29,16,52,19.70
2014,04,29,16,53,19.80
2014,04,29,16,54,19.80
2014,04,29,16,55,19.80
2014,04,29,16,56,19.80
2014,04,29,16,57,19.70
2014,04,29,16,58,19.60
2014,04,29,16,59,19.60
2014,04,29,17,00,19.60
2014,04,29,17,01,19.60
2014,04,29,17,02,19.60
2014,04,29,17,03,19.60
2014,04,29,17,04,19.70
2014,04,29,17,05,19.70
2014,04,29,17,06,19.70
2014,04,29,17,07,19.70
2014,04,29,17,08,19.70
2014,04,29,17,09,19.70
2014,04,29,17,10,19.70
2014,04,29,17,11,19.80
2014,04,29,17,12,19.80
2014,04,29,17,13,19.80
2014,04,29,17,14,19.80
2014,04,29,17,15,19.80
2014,04,29,17,16,19.80
2014,04,29,17,17,19.80
2014,04,29,17,18,19.90
2014,04,29,17,19,19.90
2014,04,29,17,20,19.90
2014,04,29,17,21,19.90
2014,04,29,17,22,19.90
2014,04,29,17,23,19.90
2014,04,29,17,24,19.90
2014,04,29,17,25,19.90
2014,04,29,17,26,19.90
2014,04,29,17,27,19.80
2014,04,29,17,28,19.80
2014,04,29,17,29,19.70
2014,04,29,17,30,19.70
2014,04,29,17,31,19.70
2014,04,29,17,32,19.70
2014,04,29,17,33,19.80
2014,04,29,17,34,19.80
2014,04,29,17,35,19.80
2014,04,29,17,36,19.90
2014,04,29,17,37,19.80
2014,04,29,17,38,19.80
2014,04,29,17,39,19.80
2014,04,29,17,40,19.80
2014,04,29,17,41,19.70
2014,04,29,17,42,19.70